NORTHERN NASSAU  -  Areal Flood Advisory Areal Flood Advisory     Flash Flood Watch Flash Flood Watch     Rip Current Statement Rip Current Statement        NORTHERN QUEENS  -  Areal Flood Advisory Areal Flood Advisory     Flash Flood Watch Flash Flood Watch     Rip Current Statement Rip Current Statement        SOUTHERN NASSAU  -  Areal Flood Advisory Areal Flood Advisory     Flash Flood Watch Flash Flood Watch     Rip Current Statement Rip Current Statement        SOUTHERN QUEENS  -  Areal Flood Advisory Areal Flood Advisory     Flash Flood Watch Flash Flood Watch     Rip Current Statement Rip Current Statement        NORTHEAST SUFFOLK  -  Rip Current Statement Rip Current Statement        NORTHWEST SUFFOLK  -  Rip Current Statement Rip Current Statement        SOUTHEAST SUFFOLK  -  Rip Current Statement Rip Current Statement        SOUTHWEST SUFFOLK  -  Rip Current Statement Rip Current Statement      

Active alerts

Northern Queens
  Details for Northern Queens Areal Flood Advisory  +2 additional alerts
Southern Queens
  Details for Southern Queens Areal Flood Advisory  +2 additional alerts
Northern Nassau
  Details for Northern Nassau Areal Flood Advisory  +2 additional alerts
Southern Nassau
  Details for Southern Nassau Areal Flood Advisory  +2 additional alerts
Northwest Suffolk
  Details for Northwest Suffolk Rip Current Statement
Southwest Suffolk
  Details for Southwest Suffolk Rip Current Statement
Northeast Suffolk
  Details for Northeast Suffolk Rip Current Statement
Southeast Suffolk
  Details for Southeast Suffolk Rip Current Statement


WXM80 ListenWXM80 Stop

You find our weather info also at:

UK Metoffice

WeatherCloud

Weather Underground

Northeastern Weather Network

AWEKAS

Citizen Weather Observer Program (CWOP)

HAMweather, WeatherForYou, PWS Weather


Weather Underground History page Text

Daily Summary for March 3, 2018 Units:  English    Metric   Both
« Previous Day
Next Day »
Daily Weekly Monthly Yearly Custom
  High: Low: Average:
Temperature: 47.2 °F 37.3 °F 40.7 °F
Dew Point: 37.9 °F 31.9 °F 33.8 °F
Humidity: 84 % 68 % 76 %
Wind Speed: 15.5 mph 3.0 mph 7.8 mph
Wind Gust: 26.5 mph - -
Wind:- - SW
Pressure: 29.83 in 29.47 in -
Precipitation: 0.00 in    
Historical Graphs
 
 
Tabular Data for March 3, 2018
Time Temperature Dew Point Pressure Wind Wind Speed Wind Gust Humidity Rainfall Rate (Hourly)
00:02 37.5 °F 33.1 °F 29.47 in North 6.2 mph 16.0 mph 84 % 0.00 in
00:07 37.5 °F 33.1 °F 29.47 in North 9.0 mph 21.9 mph 84 % 0.00 in
00:12 37.5 °F 32.8 °F 29.47 in NNE 15.5 mph 19.6 mph 83 % 0.00 in
00:18 37.5 °F 33.1 °F 29.48 in North 12.0 mph 12.7 mph 84 % 0.00 in
00:23 37.5 °F 32.8 °F 29.47 in NNW 8.1 mph 17.3 mph 83 % 0.00 in
00:28 37.5 °F 32.8 °F 29.48 in NNW 10.3 mph 17.3 mph 83 % 0.00 in
00:33 37.5 °F 32.8 °F 29.48 in North 7.7 mph 16.1 mph 83 % 0.00 in
00:38 37.5 °F 32.8 °F 29.48 in North 14.8 mph 26.5 mph 83 % 0.00 in
00:43 37.5 °F 32.8 °F 29.48 in NNW 9.8 mph 16.1 mph 83 % 0.00 in
00:48 37.5 °F 32.8 °F 29.49 in NW 7.3 mph 17.3 mph 83 % 0.00 in
00:53 37.5 °F 32.8 °F 29.49 in NNW 10.1 mph 20.7 mph 83 % 0.00 in
00:58 37.5 °F 32.8 °F 29.49 in NNE 10.2 mph 19.6 mph 83 % 0.00 in
01:03 37.5 °F 32.8 °F 29.49 in North 8.1 mph 12.0 mph 83 % 0.00 in
01:08 37.4 °F 32.7 °F 29.49 in NNW 9.4 mph 16.1 mph 83 % 0.00 in
01:13 37.4 °F 32.7 °F 29.49 in North 8.0 mph 17.0 mph 83 % 0.00 in
01:18 37.4 °F 32.7 °F 29.49 in NNE 5.7 mph 18.4 mph 83 % 0.00 in
01:23 37.4 °F 32.7 °F 29.49 in NNW 8.0 mph 19.6 mph 83 % 0.00 in
01:28 37.4 °F 32.7 °F 29.49 in North 6.9 mph 19.6 mph 83 % 0.00 in
01:33 37.4 °F 32.7 °F 29.50 in North 7.6 mph 11.5 mph 83 % 0.00 in
01:38 37.4 °F 32.7 °F 29.49 in NNW 6.8 mph 13.8 mph 83 % 0.00 in
01:43 37.4 °F 32.7 °F 29.49 in North 10.2 mph 19.6 mph 83 % 0.00 in
01:48 37.4 °F 32.7 °F 29.49 in NW 6.4 mph 13.0 mph 83 % 0.00 in
01:54 37.4 °F 32.7 °F 29.49 in NNE 7.9 mph 12.7 mph 83 % 0.00 in
01:59 37.4 °F 32.7 °F 29.49 in NNW 8.4 mph 15.0 mph 83 % 0.00 in
02:04 37.4 °F 32.7 °F 29.49 in North 9.7 mph 15.0 mph 83 % 0.00 in
02:09 37.5 °F 32.5 °F 29.49 in NNW 7.9 mph 12.7 mph 82 % 0.00 in
02:14 37.5 °F 32.5 °F 29.50 in North 8.8 mph 12.7 mph 82 % 0.00 in
02:19 37.5 °F 32.5 °F 29.49 in North 9.1 mph 17.3 mph 82 % 0.00 in
02:24 37.5 °F 32.5 °F 29.49 in North 8.1 mph 14.0 mph 82 % 0.00 in
02:29 37.5 °F 32.8 °F 29.50 in NW 5.0 mph 9.2 mph 83 % 0.00 in
02:34 37.5 °F 32.5 °F 29.50 in North 9.1 mph 18.4 mph 82 % 0.00 in
02:39 37.5 °F 32.5 °F 29.50 in NNW 6.8 mph 14.0 mph 82 % 0.00 in
02:44 37.5 °F 32.5 °F 29.51 in North 5.3 mph 11.5 mph 82 % 0.00 in
02:49 37.5 °F 32.5 °F 29.51 in NW 8.9 mph 13.8 mph 82 % 0.00 in
02:54 37.5 °F 32.5 °F 29.51 in North 9.1 mph 18.4 mph 82 % 0.00 in
02:59 37.5 °F 32.5 °F 29.51 in NNW 5.8 mph 11.5 mph 82 % 0.00 in
03:04 37.4 °F 32.4 °F 29.51 in North 6.6 mph 13.8 mph 82 % 0.00 in
03:09 37.4 °F 32.4 °F 29.51 in North 6.1 mph 11.5 mph 82 % 0.00 in
03:11 37.4 °F 32.7 °F 29.51 in North 4.4 mph 10.4 mph 83 % 0.00 in
03:16 37.4 °F 32.7 °F 29.52 in NW 5.7 mph 13.8 mph 83 % 0.00 in
03:21 37.4 °F 32.7 °F 29.51 in NNW 7.3 mph 11.5 mph 83 % 0.00 in
03:26 37.4 °F 32.7 °F 29.52 in NNW 6.0 mph 9.2 mph 83 % 0.00 in
03:32 37.4 °F 32.7 °F 29.53 in NNW 6.8 mph 10.4 mph 83 % 0.00 in
03:37 37.3 °F 32.6 °F 29.52 in NNE 7.7 mph 16.1 mph 83 % 0.00 in
03:42 37.4 °F 32.4 °F 29.52 in NW 8.9 mph 19.6 mph 82 % 0.00 in
03:47 37.4 °F 32.4 °F 29.52 in NNW 6.7 mph 11.5 mph 82 % 0.00 in
03:52 37.3 °F 32.3 °F 29.53 in NNW 8.3 mph 11.5 mph 82 % 0.00 in
03:57 37.3 °F 32.6 °F 29.52 in North 6.8 mph 12.7 mph 83 % 0.00 in
04:02 37.3 °F 32.3 °F 29.52 in NNW 7.1 mph 12.7 mph 82 % 0.00 in
04:07 37.3 °F 32.3 °F 29.54 in NNW 7.4 mph 16.1 mph 82 % 0.00 in
04:13 37.4 °F 32.4 °F 29.53 in North 5.6 mph 12.0 mph 82 % 0.00 in
04:18 37.4 °F 32.4 °F 29.54 in WNW 8.2 mph 11.5 mph 82 % 0.00 in
04:23 37.4 °F 32.1 °F 29.54 in NNW 7.8 mph 15.0 mph 81 % 0.00 in
04:28 37.4 °F 32.4 °F 29.55 in North 8.3 mph 12.7 mph 82 % 0.00 in
04:33 37.4 °F 32.1 °F 29.55 in North 7.6 mph 12.0 mph 81 % 0.00 in
04:38 37.4 °F 32.4 °F 29.55 in WNW 8.3 mph 12.7 mph 82 % 0.00 in
04:43 37.4 °F 32.4 °F 29.55 in NW 6.2 mph 9.2 mph 82 % 0.00 in
04:48 37.5 °F 32.5 °F 29.55 in NNW 5.9 mph 10.4 mph 82 % 0.00 in
04:53 37.5 °F 32.5 °F 29.56 in North 6.7 mph 12.0 mph 82 % 0.00 in
04:58 37.5 °F 32.5 °F 29.56 in NNW 6.9 mph 11.5 mph 82 % 0.00 in
05:03 37.5 °F 32.5 °F 29.56 in WNW 6.2 mph 11.5 mph 82 % 0.00 in
05:08 37.5 °F 32.5 °F 29.56 in NNW 6.0 mph 10.4 mph 82 % 0.00 in
05:13 37.5 °F 32.5 °F 29.57 in North 9.8 mph 11.5 mph 82 % 0.00 in
05:18 37.6 °F 32.6 °F 29.57 in North 6.2 mph 10.4 mph 82 % 0.00 in
05:23 37.6 °F 32.6 °F 29.57 in NNW 6.5 mph 11.5 mph 82 % 0.00 in
05:29 37.6 °F 32.6 °F 29.57 in NNW 6.2 mph 9.2 mph 82 % 0.00 in
05:34 37.6 °F 32.6 °F 29.58 in North 4.7 mph 10.0 mph 82 % 0.00 in
05:39 37.6 °F 32.6 °F 29.58 in North 7.1 mph 9.0 mph 82 % 0.00 in
05:44 37.6 °F 32.6 °F 29.58 in NW 4.0 mph 8.1 mph 82 % 0.00 in
05:49 37.6 °F 32.6 °F 29.59 in North 6.3 mph 14.0 mph 82 % 0.00 in
05:54 37.6 °F 32.6 °F 29.59 in NW 5.0 mph 10.4 mph 82 % 0.00 in
05:59 37.6 °F 32.6 °F 29.60 in NNW 6.0 mph 11.5 mph 82 % 0.00 in
06:04 37.6 °F 32.6 °F 29.60 in North 5.5 mph 13.0 mph 82 % 0.00 in
06:09 37.7 °F 32.4 °F 29.60 in North 5.8 mph 13.8 mph 81 % 0.00 in
06:14 37.7 °F 32.4 °F 29.60 in NW 3.4 mph 7.0 mph 81 % 0.00 in
06:19 37.7 °F 32.4 °F 29.61 in North 5.1 mph 9.2 mph 81 % 0.00 in
06:24 37.7 °F 32.1 °F 29.62 in North 8.3 mph 11.5 mph 80 % 0.00 in
06:29 37.8 °F 32.5 °F 29.62 in NW 4.4 mph 12.0 mph 81 % 0.00 in
06:34 37.8 °F 32.5 °F 29.62 in NNW 5.5 mph 11.5 mph 81 % 0.00 in
06:39 37.8 °F 32.5 °F 29.63 in NNE 8.0 mph 11.5 mph 81 % 0.00 in
06:44 37.8 °F 32.2 °F 29.63 in NE 11.5 mph 20.0 mph 80 % 0.00 in
06:49 37.8 °F 32.2 °F 29.63 in NW 6.9 mph 11.5 mph 80 % 0.00 in
06:54 37.9 °F 32.3 °F 29.63 in North 5.5 mph 10.0 mph 80 % 0.00 in
06:59 37.9 °F 32.3 °F 29.64 in NNE 8.2 mph 11.0 mph 80 % 0.00 in
07:04 38.0 °F 32.4 °F 29.64 in NNW 9.6 mph 11.5 mph 80 % 0.00 in
07:09 38.0 °F 32.4 °F 29.64 in NNE 8.9 mph 15.0 mph 80 % 0.00 in
07:14 38.0 °F 32.1 °F 29.65 in NNE 6.6 mph 12.7 mph 79 % 0.00 in
07:19 38.1 °F 32.2 °F 29.65 in North 7.4 mph 19.6 mph 79 % 0.00 in
07:25 38.1 °F 32.2 °F 29.66 in North 9.6 mph 17.0 mph 79 % 0.00 in
07:30 38.2 °F 32.3 °F 29.66 in North 12.1 mph 19.6 mph 79 % 0.00 in
07:35 38.2 °F 31.9 °F 29.66 in NNW 9.0 mph 15.0 mph 78 % 0.00 in
07:40 38.3 °F 32.4 °F 29.66 in North 6.8 mph 13.8 mph 79 % 0.00 in
07:45 38.3 °F 32.4 °F 29.66 in North 5.9 mph 11.5 mph 79 % 0.00 in
07:50 38.4 °F 32.5 °F 29.67 in NNE 9.7 mph 19.6 mph 79 % 0.00 in
07:55 38.4 °F 32.1 °F 29.67 in NNW 11.0 mph 18.4 mph 78 % 0.00 in
08:00 38.4 °F 32.1 °F 29.67 in NNW 9.0 mph 13.8 mph 78 % 0.00 in
08:05 38.5 °F 32.2 °F 29.67 in NNE 6.9 mph 13.8 mph 78 % 0.00 in
08:10 38.6 °F 32.6 °F 29.67 in NNE 5.8 mph 9.2 mph 79 % 0.00 in
08:15 38.7 °F 32.4 °F 29.67 in North 9.8 mph 17.3 mph 78 % 0.00 in
08:20 38.8 °F 32.5 °F 29.67 in ENE 9.5 mph 11.0 mph 78 % 0.00 in
08:25 38.9 °F 32.6 °F 29.67 in North 7.5 mph 18.4 mph 78 % 0.00 in
08:30 38.9 °F 32.3 °F 29.68 in North 6.2 mph 11.5 mph 77 % 0.00 in
08:35 39.1 °F 32.5 °F 29.67 in NNE 9.6 mph 19.6 mph 77 % 0.00 in
08:40 39.2 °F 32.3 °F 29.67 in NNE 11.0 mph 18.4 mph 76 % 0.00 in
08:45 39.4 °F 32.5 °F 29.68 in North 8.8 mph 15.0 mph 76 % 0.00 in
08:51 39.7 °F 33.1 °F 29.68 in NNW 8.7 mph 12.7 mph 77 % 0.00 in
08:56 39.9 °F 32.9 °F 29.69 in North 5.0 mph 17.0 mph 76 % 0.00 in
09:01 40.1 °F 32.8 °F 29.69 in North 7.9 mph 21.0 mph 75 % 0.00 in
09:06 40.3 °F 32.7 °F 29.68 in NW 9.0 mph 16.1 mph 74 % 0.00 in
09:11 40.5 °F 32.9 °F 29.69 in NNE 9.7 mph 19.6 mph 74 % 0.00 in
09:16 40.8 °F 32.8 °F 29.69 in North 6.1 mph 13.8 mph 73 % 0.00 in
09:21 41.2 °F 33.5 °F 29.68 in NNW 7.3 mph 11.5 mph 74 % 0.00 in
09:26 41.5 °F 33.5 °F 29.68 in NNW 6.7 mph 10.4 mph 73 % 0.00 in
09:31 41.8 °F 33.8 °F 29.68 in NW 7.9 mph 15.0 mph 73 % 0.00 in
09:36 42.0 °F 33.6 °F 29.68 in NW 8.5 mph 13.8 mph 72 % 0.00 in
09:41 42.0 °F 33.3 °F 29.68 in NNW 8.0 mph 11.5 mph 71 % 0.00 in
09:46 41.9 °F 33.2 °F 29.69 in NNW 7.5 mph 11.0 mph 71 % 0.00 in
09:51 42.2 °F 34.2 °F 29.69 in North 6.7 mph 12.7 mph 73 % 0.00 in
09:56 42.5 °F 34.1 °F 29.69 in NW 8.7 mph 16.1 mph 72 % 0.00 in
10:02 43.2 °F 35.1 °F 29.69 in NW 7.7 mph 12.7 mph 73 % 0.00 in
10:07 43.6 °F 34.8 °F 29.68 in NW 8.6 mph 16.1 mph 71 % 0.00 in
10:12 43.6 °F 34.5 °F 29.68 in NNW 7.2 mph 13.8 mph 70 % 0.00 in
10:17 43.7 °F 34.6 °F 29.69 in North 9.7 mph 11.5 mph 70 % 0.00 in
10:22 44.1 °F 34.9 °F 29.68 in NW 8.8 mph 16.1 mph 70 % 0.00 in
10:27 44.4 °F 35.6 °F 29.68 in NW 5.8 mph 16.1 mph 71 % 0.00 in
10:32 44.3 °F 34.8 °F 29.68 in NNW 9.9 mph 15.0 mph 69 % 0.00 in
10:37 43.9 °F 34.4 °F 29.68 in NNW 8.9 mph 16.1 mph 69 % 0.00 in
10:42 43.7 °F 34.6 °F 29.68 in NNE 5.8 mph 10.4 mph 70 % 0.00 in
10:47 43.6 °F 34.5 °F 29.67 in NNW 6.9 mph 12.7 mph 70 % 0.00 in
10:52 44.0 °F 35.6 °F 29.68 in NNW 4.2 mph 9.2 mph 72 % 0.00 in
10:57 44.3 °F 35.1 °F 29.68 in NW 10.0 mph 17.3 mph 70 % 0.00 in
11:02 44.9 °F 35.7 °F 29.68 in NNW 8.3 mph 11.5 mph 70 % 0.00 in
11:07 45.0 °F 35.8 °F 29.68 in NNW 5.4 mph 10.4 mph 70 % 0.00 in
11:12 45.0 °F 35.8 °F 29.68 in NNE 5.5 mph 11.0 mph 70 % 0.00 in
11:17 45.1 °F 35.9 °F 29.68 in ENE 9.5 mph 13.8 mph 70 % 0.00 in
11:22 45.4 °F 36.2 °F 29.69 in NW 7.1 mph 12.7 mph 70 % 0.00 in
11:27 45.6 °F 35.6 °F 29.68 in NNW 9.1 mph 16.1 mph 68 % 0.00 in
11:32 45.4 °F 36.2 °F 29.68 in NNW 5.2 mph 9.2 mph 70 % 0.00 in
11:34 45.4 °F 35.8 °F 29.68 in NNW 4.1 mph 9.2 mph 69 % 0.00 in
11:39 45.5 °F 36.6 °F 29.68 in NNE 5.6 mph 11.5 mph 71 % 0.00 in
11:44 45.9 °F 37.0 °F 29.68 in NNW 7.9 mph 10.4 mph 71 % 0.00 in
11:49 46.3 °F 37.0 °F 29.68 in NNW 6.0 mph 12.0 mph 70 % 0.00 in
11:54 46.4 °F 36.8 °F 29.68 in North 9.0 mph 12.7 mph 69 % 0.00 in
11:59 46.6 °F 37.3 °F 29.68 in North 6.3 mph 11.5 mph 70 % 0.00 in
12:05 47.0 °F 37.4 °F 29.69 in North 8.8 mph 12.7 mph 69 % 0.00 in
12:10 46.9 °F 36.9 °F 29.69 in NNE 8.0 mph 15.0 mph 68 % 0.00 in
12:15 47.2 °F 37.9 °F 29.69 in NE 8.4 mph 12.0 mph 70 % 0.00 in
12:20 47.0 °F 37.0 °F 29.69 in North 6.4 mph 11.5 mph 68 % 0.00 in
12:25 46.6 °F 37.0 °F 29.69 in NNW 5.5 mph 13.8 mph 69 % 0.00 in
12:30 46.2 °F 36.6 °F 29.69 in North 8.5 mph 13.8 mph 69 % 0.00 in
12:35 45.9 °F 36.7 °F 29.69 in North 7.9 mph 12.7 mph 70 % 0.00 in
12:40 45.8 °F 36.6 °F 29.70 in NNW 6.8 mph 13.8 mph 70 % 0.00 in
12:45 45.7 °F 36.8 °F 29.69 in North 5.7 mph 11.5 mph 71 % 0.00 in
12:50 45.9 °F 37.0 °F 29.69 in North 4.7 mph 9.2 mph 71 % 0.00 in
12:55 46.2 °F 37.3 °F 29.69 in North 5.9 mph 9.2 mph 71 % 0.00 in
13:00 46.3 °F 36.7 °F 29.69 in North 6.2 mph 11.5 mph 69 % 0.00 in
13:05 46.3 °F 37.0 °F 29.69 in North 7.3 mph 9.2 mph 70 % 0.00 in
13:10 46.2 °F 37.3 °F 29.69 in North 5.7 mph 13.8 mph 71 % 0.00 in
13:15 45.9 °F 36.7 °F 29.69 in North 4.9 mph 11.5 mph 70 % 0.00 in
13:20 45.7 °F 36.5 °F 29.69 in North 4.3 mph 6.9 mph 70 % 0.00 in
13:25 45.4 °F 36.2 °F 29.69 in North 5.3 mph 12.7 mph 70 % 0.00 in
13:31 45.1 °F 35.9 °F 29.69 in North 8.0 mph 14.0 mph 70 % 0.00 in
13:36 44.9 °F 36.1 °F 29.70 in North 5.0 mph 15.0 mph 71 % 0.00 in
13:41 44.6 °F 35.8 °F 29.70 in North 6.0 mph 15.0 mph 71 % 0.00 in
13:46 44.4 °F 36.0 °F 29.70 in North 6.0 mph 13.0 mph 72 % 0.00 in
13:51 44.1 °F 35.7 °F 29.70 in North 5.0 mph 14.0 mph 72 % 0.00 in
13:56 43.9 °F 35.4 °F 29.70 in North 8.0 mph 14.0 mph 72 % 0.00 in
14:00 43.6 °F 35.2 °F 29.70 in North 6.2 mph 12.7 mph 72 % 0.00 in
14:06 43.5 °F 35.4 °F 29.71 in NNW 8.0 mph 18.0 mph 73 % 0.00 in
14:11 43.4 °F 35.3 °F 29.71 in NNW 6.0 mph 12.0 mph 73 % 0.00 in
14:16 43.3 °F 35.6 °F 29.70 in North 5.4 mph 7.0 mph 74 % 0.00 in
14:21 43.3 °F 35.6 °F 29.71 in NNW 7.0 mph 15.0 mph 74 % 0.00 in
14:26 43.3 °F 35.5 °F 29.71 in NNW 6.0 mph 14.0 mph 74 % 0.00 in
14:31 43.3 °F 35.2 °F 29.71 in NNW 7.0 mph 16.0 mph 73 % 0.00 in
14:36 43.3 °F 35.2 °F 29.71 in North 3.0 mph 18.0 mph 73 % 0.00 in
14:41 43.3 °F 35.6 °F 29.71 in North 8.0 mph 14.0 mph 74 % 0.00 in
14:46 43.3 °F 35.3 °F 29.71 in North 7.0 mph 18.0 mph 73 % 0.00 in
14:51 43.4 °F 35.3 °F 29.71 in North 8.0 mph 20.0 mph 73 % 0.00 in
14:56 43.4 °F 35.3 °F 29.71 in North 7.0 mph 16.0 mph 73 % 0.00 in
15:01 43.3 °F 35.2 °F 29.72 in NNE 8.8 mph 15.0 mph 73 % 0.00 in
15:06 43.1 °F 35.0 °F 29.72 in NNE 7.8 mph 15.0 mph 73 % 0.00 in
15:11 43.0 °F 34.9 °F 29.72 in NNE 9.5 mph 18.4 mph 73 % 0.00 in
15:16 43.0 °F 34.9 °F 29.72 in North 6.3 mph 11.5 mph 73 % 0.00 in
15:21 42.9 °F 35.2 °F 29.72 in North 8.3 mph 13.8 mph 74 % 0.00 in
15:26 42.9 °F 34.8 °F 29.73 in NE 7.1 mph 12.0 mph 73 % 0.00 in
15:31 42.9 °F 34.8 °F 29.73 in NNE 7.5 mph 15.0 mph 73 % 0.00 in
15:36 42.9 °F 34.8 °F 29.73 in NNE 9.1 mph 13.8 mph 73 % 0.00 in
15:41 43.0 °F 34.9 °F 29.73 in North 7.7 mph 17.3 mph 73 % 0.00 in
15:46 43.0 °F 34.9 °F 29.74 in North 9.2 mph 13.0 mph 73 % 0.00 in
15:52 43.0 °F 35.3 °F 29.73 in NNE 8.4 mph 15.0 mph 74 % 0.00 in
15:57 42.9 °F 34.8 °F 29.74 in NNE 11.0 mph 17.3 mph 73 % 0.00 in
16:02 42.9 °F 34.8 °F 29.73 in North 13.6 mph 23.0 mph 73 % 0.00 in
16:07 42.8 °F 34.7 °F 29.74 in NNW 10.6 mph 17.3 mph 73 % 0.00 in
16:12 42.8 °F 35.1 °F 29.74 in North 9.0 mph 18.4 mph 74 % 0.00 in
16:17 42.7 °F 34.6 °F 29.74 in North 10.7 mph 20.7 mph 73 % 0.00 in
16:22 42.6 °F 34.5 °F 29.74 in NNE 8.2 mph 12.0 mph 73 % 0.00 in
16:27 42.6 °F 34.9 °F 29.74 in North 8.4 mph 12.7 mph 74 % 0.00 in
16:32 42.5 °F 34.8 °F 29.75 in NNE 8.1 mph 12.7 mph 74 % 0.00 in
16:37 42.5 °F 35.1 °F 29.75 in NNE 9.2 mph 16.0 mph 75 % 0.00 in
16:42 42.4 °F 35.0 °F 29.75 in North 9.2 mph 13.0 mph 75 % 0.00 in
16:47 42.3 °F 34.9 °F 29.75 in North 5.6 mph 13.8 mph 75 % 0.00 in
16:52 42.3 °F 34.9 °F 29.75 in NNE 9.5 mph 11.5 mph 75 % 0.00 in
16:57 42.2 °F 34.8 °F 29.76 in North 8.6 mph 14.0 mph 75 % 0.00 in
17:02 42.2 °F 34.8 °F 29.76 in NNE 6.5 mph 11.5 mph 75 % 0.00 in
17:07 42.2 °F 34.8 °F 29.76 in North 7.5 mph 13.8 mph 75 % 0.00 in
17:12 42.3 °F 34.3 °F 29.76 in North 9.2 mph 15.0 mph 73 % 0.00 in
17:17 42.3 °F 34.6 °F 29.76 in NNE 9.1 mph 15.0 mph 74 % 0.00 in
17:22 42.4 °F 34.4 °F 29.76 in NNE 12.4 mph 21.9 mph 73 % 0.00 in
17:27 42.3 °F 34.3 °F 29.76 in North 7.5 mph 12.7 mph 73 % 0.00 in
17:33 42.2 °F 34.2 °F 29.76 in North 10.3 mph 15.0 mph 73 % 0.00 in
17:38 42.1 °F 34.1 °F 29.76 in NNW 12.2 mph 13.0 mph 73 % 0.00 in
17:43 42.0 °F 34.0 °F 29.77 in North 12.5 mph 21.9 mph 73 % 0.00 in
17:48 42.0 °F 34.0 °F 29.77 in North 8.8 mph 17.3 mph 73 % 0.00 in
17:53 42.0 °F 33.6 °F 29.78 in NE 12.0 mph 18.4 mph 72 % 0.00 in
17:58 42.1 °F 34.1 °F 29.78 in NNE 10.0 mph 15.0 mph 73 % 0.00 in
18:03 42.1 °F 34.1 °F 29.78 in NNE 6.5 mph 11.5 mph 73 % 0.00 in
18:08 42.0 °F 34.3 °F 29.78 in North 8.0 mph 11.5 mph 74 % 0.00 in
18:13 42.0 °F 34.3 °F 29.78 in NNW 8.3 mph 13.8 mph 74 % 0.00 in
18:18 41.9 °F 33.9 °F 29.78 in North 6.5 mph 10.4 mph 73 % 0.00 in
18:23 41.9 °F 33.9 °F 29.79 in NNE 9.2 mph 15.0 mph 73 % 0.00 in
18:28 41.9 °F 33.9 °F 29.79 in North 7.7 mph 15.0 mph 73 % 0.00 in
18:33 41.9 °F 34.2 °F 29.79 in NNW 5.9 mph 11.5 mph 74 % 0.00 in
18:38 41.8 °F 34.1 °F 29.79 in North 5.4 mph 11.5 mph 74 % 0.00 in
18:43 41.8 °F 34.1 °F 29.79 in NW 7.1 mph 12.7 mph 74 % 0.00 in
18:48 41.8 °F 34.1 °F 29.80 in North 8.1 mph 13.8 mph 74 % 0.00 in
18:53 41.8 °F 33.8 °F 29.79 in NNE 9.9 mph 18.4 mph 73 % 0.00 in
18:58 41.7 °F 34.0 °F 29.80 in NNE 8.6 mph 13.8 mph 74 % 0.00 in
19:03 41.7 °F 33.7 °F 29.80 in North 10.3 mph 17.3 mph 73 % 0.00 in
19:08 41.6 °F 33.6 °F 29.80 in NNE 10.1 mph 13.8 mph 73 % 0.00 in
19:14 41.6 °F 33.6 °F 29.80 in NNE 8.9 mph 13.0 mph 73 % 0.00 in
19:19 41.6 °F 33.9 °F 29.80 in NE 9.9 mph 17.3 mph 74 % 0.00 in
19:21 41.5 °F 33.5 °F 29.80 in North 12.7 mph 17.3 mph 73 % 0.00 in
19:26 41.5 °F 33.8 °F 29.80 in North 9.1 mph 13.0 mph 74 % 0.00 in
19:31 41.5 °F 33.8 °F 29.80 in NW 8.8 mph 14.0 mph 74 % 0.00 in
19:36 41.4 °F 33.4 °F 29.80 in North 6.7 mph 13.8 mph 73 % 0.00 in
19:41 41.3 °F 34.0 °F 29.81 in NNE 10.2 mph 16.0 mph 75 % 0.00 in
19:46 41.3 °F 33.6 °F 29.81 in North 8.7 mph 16.1 mph 74 % 0.00 in
19:51 41.2 °F 33.5 °F 29.81 in North 9.9 mph 18.4 mph 74 % 0.00 in
19:56 41.2 °F 33.5 °F 29.81 in NNE 8.3 mph 12.7 mph 74 % 0.00 in
20:01 41.1 °F 33.4 °F 29.81 in NE 10.3 mph 15.0 mph 74 % 0.00 in
20:06 41.1 °F 33.4 °F 29.82 in NE 5.4 mph 11.5 mph 74 % 0.00 in
20:11 41.0 °F 33.3 °F 29.81 in North 7.5 mph 12.7 mph 74 % 0.00 in
20:16 41.0 °F 33.3 °F 29.82 in NNE 9.5 mph 14.0 mph 74 % 0.00 in
20:21 40.9 °F 33.2 °F 29.82 in NNE 10.8 mph 15.0 mph 74 % 0.00 in
20:26 40.9 °F 33.2 °F 29.82 in North 10.3 mph 17.3 mph 74 % 0.00 in
20:31 40.8 °F 33.2 °F 29.83 in North 9.3 mph 15.0 mph 74 % 0.00 in
20:36 40.8 °F 33.2 °F 29.83 in NE 10.4 mph 12.0 mph 74 % 0.00 in
20:41 40.7 °F 33.4 °F 29.82 in NNE 7.9 mph 10.4 mph 75 % 0.00 in
20:47 40.6 °F 33.0 °F 29.83 in North 8.0 mph 16.1 mph 74 % 0.00 in
20:52 40.6 °F 33.3 °F 29.83 in North 8.3 mph 12.7 mph 75 % 0.00 in
20:57 40.5 °F 32.9 °F 29.83 in NNE 7.6 mph 16.1 mph 74 % 0.00 in
21:02 40.5 °F 33.2 °F 29.83 in North 7.1 mph 11.5 mph 75 % 0.00 in
21:07 40.4 °F 33.1 °F 29.82 in North 5.8 mph 11.5 mph 75 % 0.00 in
21:12 40.3 °F 33.0 °F 29.83 in NNW 7.3 mph 12.7 mph 75 % 0.00 in
21:17 40.3 °F 33.3 °F 29.82 in NNE 8.9 mph 15.0 mph 76 % 0.00 in
21:22 40.2 °F 33.2 °F 29.83 in North 8.3 mph 15.0 mph 76 % 0.00 in
21:27 40.2 °F 33.2 °F 29.83 in NNE 9.4 mph 15.0 mph 76 % 0.00 in
21:32 40.2 °F 33.2 °F 29.83 in North 6.2 mph 9.2 mph 76 % 0.00 in
21:37 40.2 °F 33.2 °F 29.82 in NNE 8.3 mph 13.8 mph 76 % 0.00 in
21:42 40.2 °F 33.2 °F 29.82 in NE 6.9 mph 11.5 mph 76 % 0.00 in
21:47 40.2 °F 33.6 °F 29.82 in North 7.7 mph 11.5 mph 77 % 0.00 in
21:52 40.1 °F 33.1 °F 29.82 in North 8.0 mph 11.5 mph 76 % 0.00 in
21:57 40.2 °F 33.2 °F 29.82 in NNE 8.8 mph 14.0 mph 76 % 0.00 in
22:02 40.2 °F 33.2 °F 29.82 in North 8.9 mph 17.3 mph 76 % 0.00 in
22:07 40.2 °F 33.2 °F 29.82 in North 8.4 mph 12.7 mph 76 % 0.00 in
22:12 40.2 °F 33.2 °F 29.82 in NE 7.5 mph 13.0 mph 76 % 0.00 in
22:17 40.2 °F 33.2 °F 29.82 in NNE 6.5 mph 11.5 mph 76 % 0.00 in
22:23 40.1 °F 33.5 °F 29.82 in North 6.6 mph 10.4 mph 77 % 0.00 in
22:28 40.1 °F 33.5 °F 29.82 in North 8.3 mph 10.4 mph 77 % 0.00 in
22:33 40.1 °F 33.5 °F 29.82 in NNE 6.0 mph 9.2 mph 77 % 0.00 in
22:38 40.0 °F 33.4 °F 29.82 in North 7.4 mph 12.0 mph 77 % 0.00 in
22:43 40.0 °F 33.7 °F 29.82 in NNE 5.9 mph 10.4 mph 78 % 0.00 in
22:48 40.0 °F 33.7 °F 29.83 in NNE 8.0 mph 12.7 mph 78 % 0.00 in
22:53 40.0 °F 33.7 °F 29.82 in North 8.0 mph 12.7 mph 78 % 0.00 in
22:58 40.0 °F 33.7 °F 29.82 in NNE 7.4 mph 11.5 mph 78 % 0.00 in
23:03 40.0 °F 33.7 °F 29.82 in North 6.4 mph 12.7 mph 78 % 0.00 in
23:08 40.0 °F 33.4 °F 29.82 in NNE 6.8 mph 11.5 mph 77 % 0.00 in
23:13 40.0 °F 33.4 °F 29.83 in North 6.9 mph 10.4 mph 77 % 0.00 in
23:18 40.0 °F 33.4 °F 29.83 in North 6.8 mph 13.8 mph 77 % 0.00 in
23:23 40.0 °F 33.7 °F 29.82 in NNE 7.7 mph 13.8 mph 78 % 0.00 in
23:28 40.0 °F 33.7 °F 29.82 in North 7.2 mph 11.5 mph 78 % 0.00 in
23:33 40.0 °F 33.7 °F 29.83 in NNE 8.1 mph 12.0 mph 78 % 0.00 in
23:38 40.0 °F 33.7 °F 29.83 in NNE 6.9 mph 10.4 mph 78 % 0.00 in
23:44 40.0 °F 33.7 °F 29.83 in NNE 5.5 mph 13.8 mph 78 % 0.00 in
23:49 40.0 °F 33.7 °F 29.83 in NNE 6.3 mph 13.8 mph 78 % 0.00 in
23:54 40.0 °F 33.7 °F 29.82 in NNW 7.4 mph 10.4 mph 78 % 0.00 in
23:59 40.0 °F 33.7 °F 29.82 in NNE 7.8 mph 16.1 mph 78 % 0.00 in
Crab Meadow Weather
Compliments of Weather Underground - 3 mb

Script developed by  Jim McMurry - jmcmurry@mwt.net Adapted for the template by  Wim van der Kuil - Leuven-Template.eu

Recycling: An estimated 80,000,000 Hershey's Kisses are wrapped each day, using enough aluminum foil to cover over 50 acres of space -- that's almost 40 football fields. All that foil is recyclable, but not many people realize it.